Flag for Qatar Weather past 2 weeks in Al-Jamiliyah, Qatar

Now
83 °F

Clear.


Feels Like: 91 °F
Forecast: 86 / 100 °F
Wind: 12 mph from Northwest

Location: Al Udeid

Current Time: Sep 24, 2014 at 4:31:11 AM

Latest Report: Sep 24, 2014 at 3:58 AM


Visibility: N/A

Pressure: 29.70 "Hg

Humidity: 77%

Dew point: 75 °F

Location of Al-JamiliyahLocation

Historic Weather in Al-Jamiliyah — Graph

°F

Al-Jamiliyah temperature yesterday

Maximum temperature yesterday: 107 °F (at 1:58 PM)
Minimum temperature yesterday: 81 °F (at 2:58 AM)
Average temperature yesterday: 93 °F

Past Weeks' High & Low Weather Summary

 TemperatureHumidityPressure
High110 °F (Sep 11, 12:58 PM)86% (Sep 16, 5:58 AM)29.83 "Hg (Sep 16, 5:58 AM)
Low78 °F (Sep 21, 3:58 AM)8% (Sep 12, 1:58 PM)29.59 "Hg (Sep 10, 3:58 PM)
Average93 °F46%29.67 "Hg
* Reported Sep 9 2:58 AM — Sep 24 2:58 AM, Al-Jamiliyah, Weather by CustomWeather, © 2014

Note: Actual official high and low records may vary slightly from our data, if they occured in-between our weather recording intervals... More about our weather records

Advertising

Al-Jamiliyah weather history for previous 24 hours

 ConditionsComfort  
Time TempWeatherWind HumidityBarometerVisibility
2:58 AM
Sep 24
83 °FClear.9 mph77%29.70 "HgN/A
1:58 AM81 °FClear.9 mph63%29.70 "HgN/A
12:58 AM82 °FClear.2 mph57%29.71 "HgN/A
11:58 PM
Sep 23
84 °FClear.6 mph67%29.72 "HgN/A
10:58 PM86 °FClear.6 mph65%29.72 "HgN/A
9:58 PM89 °FClear.5 mph61%29.74 "HgN/A
8:58 PM90 °FClear.5 mph59%29.74 "HgN/A
7:58 PM91 °FClear.2 mph58%29.73 "HgN/A
6:58 PM96 °FSunny.5 mph52%29.71 "HgN/A
5:58 PM97 °FSunny.9 mph49%29.69 "HgN/A
4:58 PM100 °FSunny.10 mph42%29.68 "HgN/A
4:01 PM104 °FSunny.16 mph31%29.67 "HgN/A
3:58 PM104 °FSunny.17 mph28%29.67 "HgN/A
2:58 PM106 °FSunny.7 mph15%29.67 "HgN/A
1:58 PM107 °FSunny.9 mph15%29.67 "HgN/A
12:58 PM104 °FSunny.3 mph31%29.69 "HgN/A
11:58 AM103 °FSunny.7 mph33%29.71 "HgN/A
10:58 AM101 °FSunny.7 mph37%29.73 "HgN/A
9:58 AM97 °FSunny.6 mph43%29.75 "HgN/A
8:58 AM94 °FSunny.6 mph47%29.76 "HgN/A
7:58 AM87 °FSunny.5 mph68%29.74 "HgN/A
6:58 AM83 °FFog.10 mph81%29.72 "Hg6 mi
5:58 AM82 °FFog.8 mph83%29.70 "Hg6 mi
4:58 AM82 °FClear.7 mph84%29.69 "HgN/A
Weather by CustomWeather, © 2014

See weather overviewHow to use our weather pages